Погода в Давыдовке

Россия / Курганская область     54°55′59″N   65°23′41″E
темп.,
°C
ветер,
м/с
пор.,
м/с
влажн.,
%
обл.,
%
осадки,
мм/ч
давл.,
гПа
погр.,
м
27 февраля, сб
сб2723:00−29ю47980 0.0 103191
02:00−30ю47980 0.0 103089
05:00−31ю479732 0.0 103089
08:00−31ююв479710 0.0 1028112
11:00−24ююв579614 0.0 1027231
14:00−20юв6109680 0.0 1024283
17:00−16юв7139390 0.1 1021481
20:00−13ююв81494100 0.8 1018693
28 февраля, вс
вс2823:00−13ююв71394100 1.9 1016701
02:00−13юв71294100 0.6 1013596
05:00−12юв71293100 1.1 1011463
08:00−13вюв6129399 0.2 1009379
11:00−10вюв61093100 0.4 1007407
14:00−9в6993100 0.3 1005434
17:00−9всв5994100 0.9 1005410
20:00−10всв5994100 0.4 1005344
1 марта, пн
пн123:00−12св5894100 0.7 1007300
02:00−14ссв5895100 0.3 1008288
05:00−17ссв479794 0.4 1010153
08:00−19с369885 0.0 1012134
11:00−17с349490 0.1 1014266
14:00−14ссз3490100 0.0 1016393
17:00−14с2394100 0.1 1017175
20:00−18св119699 0.0 101820
2 марта, вт
вт223:00−18св119796 0.1 101820
02:00−18св0097100 0.1 101720
05:00−18всв0198100 0.3 101720
08:00−18в019798 0.1 101620
11:00−15ссз119097 0.3 1016249
14:00−13з1185100 0.1 1015454
17:00−14з2393100 0.1 1015254
20:00−18юз229882 0.0 101520
3 марта, ср
ср323:00−20юз3410083 0.1 101634
02:00−22ююз349830 0.0 101635
05:00−23ю339815 0.0 101628
08:00−23ююв47988 0.0 101592
11:00−18ю579444 0.0 1015253
14:00−16ю579298 0.0 1015314
17:00−15ю599499 0.1 1014318
20:00−15ю5109599 0.2 1014293